{"data":{"norad_id":58503,"intl_designator":"2023-189B","name":"2023-189B","alt_names":[],"object_type":"PAYLOAD","status":"ACTIVE","operator":null,"country":"PRC","launch_date":"2023-12-04","launch_site_code":"JSC","launch_vehicle":null,"mission":null,"orbit_class":"UNKNOWN","rcs_meters":null,"size_class":null,"mass_kg":null,"dimensions":null,"purposes":[],"wikipedia_slug":null,"has_3d_model":false,"image_url":null,"decayed_at":null,"tle_current":{"epoch":"2026-05-25T02:46:13.393056Z","epoch_age_seconds":64533,"freshness":"FRESH","line1":"1 58503U 23189B   26145.11543279  .00423620  78570-4  84723-3 0  9999","line2":"2 58503  97.3850 183.8764 0006998 220.3247 139.7513 15.99755667139118","mean_motion":15.99755667,"eccentricity":0.0006998,"inclination_deg":97.385,"raan_deg":183.8764,"arg_perigee_deg":220.3247,"mean_anomaly_deg":139.7513,"bstar":0.00084723,"rev_number":13911,"period_min":90.01374583035,"perigee_km":270.44012124001,"apogee_km":279.75198622202,"semimajor_km":6653.233053731,"source":"CELESTRAK","updated_at":"2026-05-25T13:38:00.795189Z"}}}